Flag for U.S.A. Weather past 2 weeks in Alexandria, Virginia, U.S.A.

Now
42 °F

Cloudy.


Feels Like: 40 °F
Forecast: 23 / 45 °F
Wind: 3 mph from Southeast

Location: Reagan National Airport

Current Time: Feb 1, 2015 at 5:53:04 PM

Latest Report: Feb 1, 2015 at 4:52 PM


Visibility: 10 mi

Pressure: 30.08 "Hg

Humidity: 39%

Dew point: 19 °F

Location of AlexandriaLocation

Historic Weather in Alexandria — Graph

°F

Alexandria temperature yesterday

Maximum temperature yesterday: 35 °F (at 3:52 PM)
Minimum temperature yesterday: 21 °F (at 3:52 AM)
Average temperature yesterday: 28 °F

Past Weeks' High & Low Weather Summary

 TemperatureHumidityPressure
High51 °F (Jan 25, 10:52 AM)88% (Jan 21, 1:52 PM)30.40 "Hg (Jan 21, 1:52 PM)
Low21 °F (Jan 31, 3:52 AM)27% (Jan 28, 2:52 PM)29.46 "Hg (Jan 24, 1:52 PM)
Average37 °F60%30.03 "Hg
* Reported Jan 17 4:52 PM — Feb 1 4:52 PM, Alexandria, Weather by CustomWeather, © 2014

Note: Actual official high and low records may vary slightly from our data, if they occured in-between our weather recording intervals... More about our weather records

Advertising

Alexandria weather history for previous 24 hours

 ConditionsComfort  
Time TempWeatherWind HumidityBarometerVisibility
4:52 PM
Feb 1
42 °FCloudy.3 mph39%30.08 "Hg10 mi
3:52 PM42 °FMore clouds than sun.5 mph39%30.11 "Hg10 mi
2:52 PM42 °FMostly cloudy.8 mph35%30.12 "Hg10 mi
1:52 PM41 °FOvercast.6 mph36%30.16 "Hg10 mi
12:52 PM39 °FOvercast.6 mph43%30.19 "Hg10 mi
11:52 AM37 °FOvercast.7 mph46%30.24 "Hg10 mi
10:52 AM36 °FOvercast.6 mph52%30.27 "Hg10 mi
9:52 AM35 °FOvercast.6 mph54%30.28 "Hg10 mi
8:52 AM34 °FOvercast.3 mph50%30.29 "Hg10 mi
7:52 AM32 °FOvercast.3 mph56%30.30 "Hg9 mi
6:52 AM30 °FOvercast.3 mph64%30.29 "Hg10 mi
5:52 AM29 °FOvercast.3 mph66%30.28 "Hg10 mi
4:52 AM29 °FOvercast.6 mph69%30.27 "Hg10 mi
3:52 AM27 °FOvercast.3 mph69%30.28 "Hg10 mi
2:52 AM27 °FOvercast.5 mph72%30.29 "Hg10 mi
1:52 AM28 °FPassing clouds.No wind64%30.29 "Hg10 mi
12:52 AM30 °FPassing clouds.No wind59%30.28 "Hg10 mi
11:52 PM
Jan 31
29 °FPassing clouds.No wind58%30.29 "Hg10 mi
10:52 PM29 °FPassing clouds.No wind54%30.28 "Hg10 mi
9:52 PM30 °FClear.No wind49%30.28 "Hg10 mi
8:52 PM29 °FClear.5 mph49%30.29 "Hg10 mi
7:52 PM31 °FClear.No wind61%30.29 "Hg10 mi
6:52 PM33 °FClear.No wind38%30.29 "Hg10 mi
5:52 PM34 °FPassing clouds.No wind34%30.29 "Hg10 mi
Weather by CustomWeather, © 2014

See weather overviewHow to use our weather pages